TimePDT,TemperatureF,Dew PointF,Humidity,Sea Level PressureIn,VisibilityMPH,Wind Direction,Wind SpeedMPH,Gust SpeedMPH,PrecipitationIn,Events,Conditions,WindDirDegrees,DateUTC
12:53 AM,71.1,55.0,57,29.82,10.0,Calm,Calm,-,N/A,,Clear,0,2011-10-13 07:53:00
1:53 AM,71.1,52.0,51,29.82,10.0,Calm,Calm,-,N/A,,Clear,0,2011-10-13 08:53:00
2:53 AM,69.1,52.0,54,29.82,10.0,Calm,Calm,-,N/A,,Clear,0,2011-10-13 09:53:00
3:53 AM,66.9,52.0,59,29.81,10.0,Calm,Calm,-,N/A,,Clear,0,2011-10-13 10:53:00
4:53 AM,64.9,52.0,63,29.81,10.0,Calm,Calm,-,N/A,,Clear,0,2011-10-13 11:53:00
5:53 AM,64.9,53.1,65,29.81,10.0,Calm,Calm,-,N/A,,Clear,0,2011-10-13 12:53:00
6:53 AM,63.0,53.1,70,29.81,10.0,Calm,Calm,-,N/A,,Clear,0,2011-10-13 13:53:00
7:53 AM,68.0,54.0,61,29.82,10.0,Calm,Calm,-,N/A,,Clear,0,2011-10-13 14:53:00
8:53 AM,77.0,53.1,43,29.83,10.0,Calm,Calm,-,N/A,,Clear,0,2011-10-13 15:53:00
9:53 AM,84.0,52.0,33,29.83,10.0,Calm,Calm,-,N/A,,Clear,0,2011-10-13 16:53:00
10:53 AM,90.0,48.0,24,29.82,10.0,Calm,Calm,-,N/A,,Clear,0,2011-10-13 17:53:00
11:53 AM,95.0,44.1,17,29.80,10.0,Calm,Calm,-,N/A,,Clear,0,2011-10-13 18:53:00
12:53 PM,98.1,42.1,15,29.78,10.0,Variable,4.6,-,N/A,,Clear,0,2011-10-13 19:53:00
1:53 PM,95.0,44.1,17,29.76,10.0,SSW,6.9,-,N/A,,Clear,210,2011-10-13 20:53:00
2:53 PM,93.0,41.0,16,29.75,10.0,SW,10.4,-,N/A,,Clear,220,2011-10-13 21:53:00
3:53 PM,91.9,42.1,18,29.75,10.0,SW,8.1,-,N/A,,Clear,220,2011-10-13 22:53:00
5:53 PM,89.1,46.9,23,29.75,10.0,SSE,4.6,-,N/A,,Clear,150,2011-10-14 00:53:00
6:53 PM,82.0,52.0,35,29.76,10.0,South,3.5,-,N/A,,Clear,170,2011-10-14 01:53:00
7:53 PM,77.0,54.0,45,29.78,10.0,Calm,Calm,-,N/A,,Clear,0,2011-10-14 02:53:00
9:53 PM,73.0,55.9,55,29.82,10.0,Calm,Calm,-,N/A,,Clear,0,2011-10-14 04:53:00
10:53 PM,72.0,57.9,61,29.83,10.0,Calm,Calm,-,N/A,,Clear,0,2011-10-14 05:53:00
11:53 PM,68.0,57.9,70,29.83,10.0,Calm,Calm,-,N/A,,Clear,0,2011-10-14 06:53:00